UAE261 OMDB-SBGR

Flight info

Callsign UAE261
Flight time N/A
Altitude 30000
Route MIROT Q576 RORON M430 TOSNA/N0470F260 M430 ULIKA/N0502F300 M430 KSA G782 RGB M309 VEMEM G782 JDW M863 DAREV/N0503F320 M863 KITOB UM863 FL UG660 MIU UG626 POSIB/N0495F340 UG626 JOS UJ332 GURAP UH340 LAG UL433 TYE UY87 KIDNI UA560 INAKA DCT KOBLI UN363 UBUGO DCT 01S011W 04S014W/N0487F360 DCT ANPIR UN548 GARUP/N0477F380 UN548 VRI UN401 SIDUR DCT VUNOX
Aircraft B77W/H-SDE1E2E3FGHIJ2J3J4J5M1RWXY/LB1D1

Departure

Time 2026-05-04 03:39
Airport Dubai International Airport (OMDB)

Arrival

Time N/A
Airport São Paulo/Guarulhos–Governor André Franco Montoro International Airport (SBGR)
Time Latitude Longitude Altitude Speed Heading
2026-05-04 03:28 25.24948 55.36342 25 ft 4 kts 229°
2026-05-04 03:28 25.24953 55.36364 24 ft 4 kts 296°
2026-05-04 03:28 25.24940 55.36387 25 ft 1 kts 302°
2026-05-04 03:33 25.24949 55.36372 24 ft 6 kts 301°
2026-05-04 03:33 25.24981 55.36314 27 ft 10 kts 301°
2026-05-04 03:33 25.25018 55.36246 27 ft 10 kts 300°
2026-05-04 03:33 25.25075 55.36209 27 ft 10 kts 358°
2026-05-04 03:34 25.25141 55.36190 27 ft 10 kts 323°
2026-05-04 03:34 25.25185 55.36129 27 ft 10 kts 302°
2026-05-04 03:34 25.25222 55.36063 27 ft 10 kts 301°
2026-05-04 03:34 25.25258 55.35996 27 ft 10 kts 302°
2026-05-04 03:35 25.25296 55.35931 27 ft 10 kts 303°
2026-05-04 03:35 25.25333 55.35865 27 ft 10 kts 301°
2026-05-04 03:35 25.25369 55.35798 27 ft 10 kts 300°
2026-05-04 03:35 25.25412 55.35738 27 ft 10 kts 326°
2026-05-04 03:36 25.25477 55.35752 27 ft 10 kts 33°
2026-05-04 03:36 25.25498 55.35767 27 ft 0 kts 32°
2026-05-04 03:37 25.25500 55.35768 27 ft 1 kts 32°
2026-05-04 03:37 25.25522 55.35783 27 ft 7 kts 32°
2026-05-04 03:37 25.25581 55.35827 27 ft 12 kts 46°
2026-05-04 03:38 25.25580 55.35909 27 ft 0 kts 120°
2026-05-04 03:38 25.25572 55.35924 27 ft 15 kts 120°
2026-05-04 03:38 25.25390 55.36251 27 ft 84 kts 121°
2026-05-04 03:38 25.24970 55.37005 27 ft 145 kts 122°
2026-05-04 03:39 25.24351 55.38117 28 ft 193 kts 121°
2026-05-04 03:39 25.23598 55.39472 150 ft 212 kts 121°
2026-05-04 03:39 25.22887 55.40805 851 ft 198 kts 122°
2026-05-04 03:39 25.22135 55.42162 1056 ft 214 kts 122°
2026-05-04 03:40 25.21308 55.43585 1335 ft 224 kts 129°
2026-05-04 03:40 25.20071 55.44603 1594 ft 226 kts 166°
2026-05-04 03:40 25.18524 55.44611 1678 ft 226 kts 205°
2026-05-04 03:40 25.17152 55.43752 1877 ft 230 kts 216°
2026-05-04 03:41 25.15780 55.42814 2233 ft 234 kts 216°
2026-05-04 03:41 25.14572 55.41682 2623 ft 225 kts 242°
2026-05-04 03:41 25.14161 55.40071 2932 ft 219 kts 273°
2026-05-04 03:41 25.14280 55.38398 3282 ft 220 kts 276°
2026-05-04 03:42 25.14418 55.36710 3676 ft 222 kts 276°
2026-05-04 03:42 25.14563 55.35009 4070 ft 224 kts 276°
2026-05-04 03:42 25.14711 55.33296 4447 ft 226 kts 276°
2026-05-04 03:42 25.14776 55.31520 4649 ft 239 kts 269°
2026-05-04 03:43 25.14681 55.29657 4933 ft 248 kts 266°
2026-05-04 03:43 25.14551 55.27694 5113 ft 263 kts 266°
2026-05-04 03:43 25.14418 55.25654 5494 ft 269 kts 266°
2026-05-04 03:43 25.14288 55.23597 6051 ft 270 kts 266°
2026-05-04 03:44 25.14162 55.21525 6583 ft 271 kts 266°
2026-05-04 03:44 25.14040 55.19446 7084 ft 273 kts 266°
2026-05-04 03:44 25.13919 55.17348 7608 ft 274 kts 266°
2026-05-04 03:44 25.13800 55.15238 8128 ft 276 kts 266°
2026-05-04 03:45 25.13683 55.13148 8615 ft 278 kts 267°
2026-05-04 03:45 25.13565 55.11014 9116 ft 280 kts 267°
2026-05-04 03:45 25.13447 55.08868 9627 ft 281 kts 267°
2026-05-04 03:45 25.13328 55.06707 10066 ft 283 kts 267°
2026-05-04 03:46 25.13207 55.04497 10288 ft 296 kts 268°
2026-05-04 03:46 25.13079 55.02165 10401 ft 312 kts 268°
2026-05-04 03:46 25.12945 54.99713 10528 ft 329 kts 268°
2026-05-04 03:46 25.12803 54.97131 10639 ft 345 kts 268°
2026-05-04 03:47 25.12680 54.94898 10797 ft 356 kts 268°
2026-05-04 03:47 25.12526 54.92140 11117 ft 365 kts 268°
2026-05-04 03:47 25.12369 54.89317 11531 ft 372 kts 268°
2026-05-04 03:47 25.12208 54.86451 12053 ft 375 kts 268°
2026-05-04 03:48 25.12045 54.83570 12600 ft 379 kts 268°
2026-05-04 03:48 25.11880 54.80653 13127 ft 382 kts 269°
2026-05-04 03:48 25.11714 54.77708 13633 ft 387 kts 269°
2026-05-04 03:48 25.11545 54.74735 14092 ft 390 kts 269°
2026-05-04 03:49 25.11375 54.71743 14597 ft 392 kts 269°
2026-05-04 03:49 25.11202 54.68728 15108 ft 394 kts 269°
2026-05-04 03:49 25.11028 54.65700 15612 ft 396 kts 269°
2026-05-04 03:49 25.10853 54.62658 16108 ft 399 kts 269°
2026-05-04 03:50 25.10677 54.59592 16606 ft 402 kts 269°
2026-05-04 03:50 25.10498 54.56509 17095 ft 404 kts 269°
2026-05-04 03:50 25.10334 54.53406 17584 ft 406 kts 271°
2026-05-04 03:50 25.10392 54.50332 18055 ft 407 kts 277°
2026-05-04 03:51 25.10759 54.47243 18471 ft 407 kts 282°
2026-05-04 03:51 25.11246 54.44153 18874 ft 410 kts 282°
2026-05-04 03:51 25.11728 54.41038 19286 ft 413 kts 282°
2026-05-04 03:51 25.12205 54.37905 19694 ft 416 kts 281°
2026-05-04 03:52 25.12679 54.34745 20107 ft 418 kts 281°
2026-05-04 03:52 25.13151 54.31571 20520 ft 421 kts 281°
2026-05-04 03:52 25.13625 54.28372 20928 ft 424 kts 281°
2026-05-04 03:52 25.14099 54.25157 21334 ft 426 kts 281°
2026-05-04 03:53 25.14577 54.21915 21713 ft 429 kts 280°
2026-05-04 03:53 25.15058 54.18654 22081 ft 432 kts 280°
2026-05-04 03:53 25.15526 54.15462 22460 ft 435 kts 280°
2026-05-04 03:53 25.16003 54.12161 22860 ft 437 kts 279°
2026-05-04 03:54 25.16480 54.08832 23250 ft 440 kts 279°
2026-05-04 03:54 25.16958 54.05490 23612 ft 441 kts 279°
2026-05-04 03:54 25.17436 54.02143 23973 ft 442 kts 279°
2026-05-04 03:54 25.17916 53.98787 24339 ft 443 kts 279°
2026-05-04 03:55 25.18395 53.95428 24663 ft 444 kts 279°
2026-05-04 03:55 25.18877 53.92049 24986 ft 446 kts 279°
2026-05-04 03:55 25.19360 53.88657 25308 ft 447 kts 279°
2026-05-04 03:55 25.19842 53.85261 25642 ft 448 kts 279°
2026-05-04 03:56 25.20325 53.81864 25971 ft 449 kts 279°
2026-05-04 03:56 25.20823 53.78452 26289 ft 450 kts 281°
2026-05-04 03:56 25.21520 53.75074 26597 ft 451 kts 284°
2026-05-04 03:56 25.22291 53.71710 26888 ft 453 kts 284°
2026-05-04 03:57 25.23064 53.68329 27164 ft 454 kts 284°
2026-05-04 03:57 25.23820 53.64984 27464 ft 456 kts 284°
2026-05-04 03:57 25.24583 53.61578 27750 ft 457 kts 283°
2026-05-04 03:57 25.25342 53.58171 28029 ft 458 kts 283°
2026-05-04 03:58 25.26862 53.51330 28597 ft 459 kts 283°
2026-05-04 03:58 25.27621 53.47908 28890 ft 459 kts 283°
2026-05-04 03:58 25.28381 53.44483 29128 ft 459 kts 283°
2026-05-04 03:59 25.29142 53.41052 29369 ft 460 kts 283°
2026-05-04 03:59 25.29902 53.37622 29664 ft 459 kts 283°
2026-05-04 03:59 25.30661 53.34188 29765 ft 461 kts 283°
2026-05-04 03:59 25.31421 53.30748 29833 ft 457 kts 283°
2026-05-04 04:00 25.32905 53.24024 29826 ft 446 kts 283°
2026-05-04 04:00 25.34053 53.17290 29822 ft 447 kts 274°
2026-05-04 04:01 25.33986 53.10417 29832 ft 449 kts 265°
2026-05-04 04:01 25.32896 53.03611 29834 ft 450 kts 261°
2026-05-04 04:02 25.31743 52.96803 29824 ft 451 kts 261°
2026-05-04 04:02 25.30603 52.89982 29834 ft 451 kts 261°
2026-05-04 04:03 25.29444 52.83166 29834 ft 451 kts 261°
2026-05-04 04:03 25.28483 52.77508 29820 ft 451 kts 261°
2026-05-04 04:04 25.27184 52.69593 29832 ft 449 kts 264°
2026-05-04 04:04 25.26863 52.62728 29838 ft 447 kts 270°
2026-05-04 04:05 25.26807 52.57025 29844 ft 446 kts 270°
2026-05-04 04:05 25.26710 52.50182 29837 ft 445 kts 269°
2026-05-04 04:06 25.26598 52.43347 29843 ft 445 kts 269°
2026-05-04 04:06 25.26482 52.36506 29848 ft 446 kts 269°
2026-05-04 04:07 25.26363 52.29653 29838 ft 447 kts 269°
2026-05-04 04:07 25.26241 52.22788 29840 ft 448 kts 269°
2026-05-04 04:08 25.26115 52.15907 29840 ft 448 kts 269°
2026-05-04 04:08 25.25986 52.09017 29851 ft 449 kts 269°
2026-05-04 04:09 25.25854 52.02122 29848 ft 449 kts 269°
2026-05-04 04:09 25.25719 51.95225 29833 ft 449 kts 269°
2026-05-04 04:10 25.25580 51.88329 29836 ft 449 kts 269°
2026-05-04 04:10 25.25438 51.81433 29846 ft 449 kts 269°
2026-05-04 04:11 25.25294 51.74551 29835 ft 448 kts 269°
2026-05-04 04:11 25.25147 51.67674 29832 ft 447 kts 269°
2026-05-04 04:12 25.25017 51.60813 29820 ft 446 kts 270°
2026-05-04 04:12 25.25379 51.53982 29837 ft 445 kts 273°
2026-05-04 04:13 25.25788 51.47151 29848 ft 446 kts 273°
2026-05-04 04:13 25.26177 51.40309 29849 ft 447 kts 273°
2026-05-04 04:14 25.26557 51.33508 29853 ft 447 kts 273°
2026-05-04 04:14 25.26936 51.26643 29852 ft 448 kts 272°
2026-05-04 04:15 25.26967 51.19764 29863 ft 448 kts 269°
2026-05-04 04:15 25.26865 51.12873 29855 ft 448 kts 269°
2026-05-04 04:16 25.26786 51.05981 29856 ft 449 kts 269°
2026-05-04 04:16 25.26713 50.99087 29852 ft 448 kts 269°
2026-05-04 04:17 25.26637 50.92208 29851 ft 448 kts 269°
2026-05-04 04:17 25.26558 50.85326 29836 ft 448 kts 269°
2026-05-04 04:18 25.26475 50.78452 29840 ft 448 kts 269°
2026-05-04 04:18 25.26389 50.71565 29852 ft 448 kts 269°
2026-05-04 04:19 25.26300 50.64693 29853 ft 448 kts 269°
2026-05-04 04:19 25.26200 50.57801 29853 ft 448 kts 269°
2026-05-04 04:20 25.26094 50.50915 29859 ft 448 kts 269°
2026-05-04 04:20 25.26169 50.44021 29848 ft 449 kts 271°
2026-05-04 04:21 25.26354 50.37172 29850 ft 449 kts 271°
2026-05-04 04:21 25.26521 50.30268 29875 ft 449 kts 271°
2026-05-04 04:22 25.26661 50.23367 29867 ft 449 kts 270°
2026-05-04 04:22 25.26790 50.16480 29851 ft 448 kts 270°
2026-05-04 04:23 25.26915 50.09605 29856 ft 447 kts 270°
2026-05-04 04:23 25.27038 50.02747 29858 ft 447 kts 270°
2026-05-04 04:24 25.27157 49.95889 29867 ft 446 kts 270°
2026-05-04 04:24 25.27274 49.89033 29860 ft 446 kts 270°
2026-05-04 04:25 25.27387 49.82222 29879 ft 447 kts 270°
2026-05-04 04:25 25.27497 49.75344 29879 ft 448 kts 270°
2026-05-04 04:26 25.27605 49.68459 29874 ft 449 kts 270°
2026-05-04 04:26 25.27709 49.61560 29879 ft 449 kts 270°
2026-05-04 04:27 25.27811 49.54662 29881 ft 449 kts 270°
2026-05-04 04:27 25.27852 49.47774 29876 ft 447 kts 266°
2026-05-04 04:28 25.27250 49.40948 29883 ft 446 kts 263°
2026-05-04 04:28 25.26605 49.34129 29892 ft 446 kts 264°
2026-05-04 04:29 25.25984 49.27362 29889 ft 446 kts 264°
2026-05-04 04:29 25.25361 49.20553 29893 ft 446 kts 264°
2026-05-04 04:30 25.24733 49.13738 29904 ft 446 kts 263°
2026-05-04 04:30 25.24106 49.06924 29879 ft 446 kts 263°
2026-05-04 04:31 25.23483 49.00107 29897 ft 446 kts 263°
2026-05-04 04:31 25.22855 48.93274 29902 ft 447 kts 263°
2026-05-04 04:32 25.22223 48.86439 29897 ft 448 kts 263°
2026-05-04 04:32 25.21587 48.79593 29905 ft 448 kts 263°
2026-05-04 04:33 25.20947 48.72743 29919 ft 448 kts 263°
2026-05-04 04:33 25.20305 48.65896 29925 ft 448 kts 263°
2026-05-04 04:34 25.19658 48.59062 29913 ft 447 kts 263°
2026-05-04 04:34 25.18993 48.52246 29922 ft 446 kts 263°
2026-05-04 04:35 25.18326 48.45453 29927 ft 445 kts 263°
2026-05-04 04:35 25.17658 48.38666 29925 ft 444 kts 263°
2026-05-04 04:36 25.16989 48.31883 29940 ft 444 kts 263°
2026-05-04 04:36 25.16316 48.25097 29923 ft 445 kts 263°
2026-05-04 04:37 25.14963 48.11518 29940 ft 446 kts 263°
2026-05-04 04:38 25.14287 48.04714 29943 ft 446 kts 263°
2026-05-04 04:38 25.13609 47.97908 29942 ft 446 kts 263°
2026-05-04 04:39 25.12930 47.91142 29946 ft 447 kts 263°
2026-05-04 04:39 25.12244 47.84326 29950 ft 447 kts 263°
2026-05-04 04:40 25.11500 47.77520 29955 ft 447 kts 262°
2026-05-04 04:40 25.10684 47.70724 29963 ft 447 kts 262°
2026-05-04 04:41 25.09873 47.63938 29950 ft 445 kts 262°
2026-05-04 04:41 25.09073 47.57175 29954 ft 444 kts 262°
2026-05-04 04:42 25.08274 47.50437 29961 ft 442 kts 262°
2026-05-04 04:42 25.07473 47.43713 29975 ft 442 kts 262°
2026-05-04 04:43 25.06663 47.37000 29976 ft 441 kts 261°
2026-05-04 04:43 25.05847 47.30286 29974 ft 442 kts 261°
2026-05-04 04:44 25.05027 47.23565 29969 ft 442 kts 261°
2026-05-04 04:44 25.04203 47.16837 29970 ft 443 kts 261°
2026-05-04 04:45 25.03376 47.10095 29980 ft 444 kts 261°
2026-05-04 04:47 25.00460 46.86537 30001 ft 444 kts 261°
2026-05-04 04:47 24.99618 46.79790 29985 ft 444 kts 261°
2026-05-04 04:48 24.98772 46.73056 30014 ft 443 kts 260°
2026-05-04 04:49 24.94383 46.60513 29994 ft 440 kts 239°
2026-05-04 04:49 24.92728 46.57684 29974 ft 440 kts 238°
2026-05-04 04:49 24.89386 46.52029 29985 ft 441 kts 238°
2026-05-04 04:50 24.86050 46.46354 29990 ft 442 kts 239°
2026-05-04 04:50 24.82715 46.40645 30012 ft 444 kts 239°
2026-05-04 04:51 24.79373 46.34917 30009 ft 445 kts 239°
2026-05-04 04:51 24.76590 46.30151 29987 ft 446 kts 239°
2026-05-04 04:52 24.73235 46.24415 29984 ft 446 kts 239°
2026-05-04 04:52 24.69337 46.17756 29981 ft 445 kts 239°
2026-05-04 04:53 24.65983 46.12036 30005 ft 445 kts 238°
2026-05-04 04:53 24.63175 46.07252 29998 ft 444 kts 238°
2026-05-04 04:54 24.59283 46.00628 29997 ft 443 kts 238°
2026-05-04 04:54 24.56480 45.95863 29983 ft 443 kts 238°
2026-05-04 04:55 24.53130 45.90174 29980 ft 443 kts 238°
2026-05-04 04:55 24.49803 45.84530 29977 ft 443 kts 238°
2026-05-04 04:56 24.46451 45.78851 29978 ft 443 kts 238°
2026-05-04 04:56 24.43491 45.72941 30000 ft 442 kts 245°
2026-05-04 04:57 24.40826 45.66867 29978 ft 442 kts 245°
2026-05-04 04:57 24.38134 45.60805 29980 ft 442 kts 245°
2026-05-04 04:58 24.35432 45.54748 29982 ft 442 kts 245°
2026-05-04 04:58 24.32722 45.48683 30002 ft 443 kts 245°
2026-05-04 04:59 24.30012 45.42625 30001 ft 443 kts 245°
2026-05-04 04:59 24.27297 45.36561 30009 ft 443 kts 244°
2026-05-04 05:00 24.24598 45.30542 30005 ft 443 kts 244°
2026-05-04 05:01 24.20524 45.21469 30007 ft 442 kts 244°
2026-05-04 05:01 24.17804 45.15421 30007 ft 443 kts 244°
2026-05-04 05:02 24.15079 45.09369 30012 ft 443 kts 244°
2026-05-04 05:02 24.12349 45.03301 30017 ft 444 kts 244°
2026-05-04 05:03 24.09615 44.97227 30024 ft 445 kts 244°
2026-05-04 05:04 24.04138 44.85084 30013 ft 445 kts 244°
2026-05-04 05:04 24.01402 44.79031 30019 ft 444 kts 244°
2026-05-04 05:06 23.90828 44.54664 30031 ft 444 kts 249°
2026-05-04 05:07 23.88633 44.48345 30022 ft 445 kts 249°
2026-05-04 05:07 23.86419 44.42025 30016 ft 445 kts 249°
2026-05-04 05:09 23.76414 44.13702 30011 ft 444 kts 249°
2026-05-04 05:10 23.74189 44.07428 30008 ft 443 kts 249°
2026-05-04 05:10 23.71961 44.01155 30030 ft 443 kts 249°
2026-05-04 05:11 23.69728 43.94880 30022 ft 444 kts 249°
2026-05-04 05:11 23.67491 43.88601 30022 ft 444 kts 249°
2026-05-04 05:12 23.65251 43.82324 30033 ft 444 kts 249°
2026-05-04 05:12 23.63008 43.76046 30021 ft 444 kts 249°
2026-05-04 05:13 23.60750 43.69735 30018 ft 444 kts 249°
2026-05-04 05:13 23.58502 43.63465 30028 ft 444 kts 249°
2026-05-04 05:14 23.56268 43.57238 30045 ft 444 kts 249°
2026-05-04 05:14 23.54013 43.50964 30041 ft 444 kts 249°
2026-05-04 05:15 23.51757 43.44698 30020 ft 444 kts 249°
2026-05-04 05:15 23.49501 43.38440 30055 ft 444 kts 249°
2026-05-04 05:16 23.47243 43.32184 30051 ft 444 kts 249°
2026-05-04 05:16 23.44984 43.25934 30051 ft 443 kts 249°
2026-05-04 05:17 23.42725 43.19689 30069 ft 443 kts 249°
2026-05-04 05:17 23.40468 43.13464 30050 ft 442 kts 249°
2026-05-04 05:18 23.38211 43.07255 30068 ft 441 kts 249°
2026-05-04 05:18 23.35954 43.01059 30084 ft 440 kts 249°
2026-05-04 05:19 23.33702 42.94880 30075 ft 439 kts 249°
2026-05-04 05:19 23.31449 42.88708 30061 ft 438 kts 249°
2026-05-04 05:20 23.29214 42.82590 30069 ft 438 kts 249°
2026-05-04 05:20 23.26961 42.76435 30069 ft 438 kts 249°
2026-05-04 05:21 23.24702 42.70268 30079 ft 440 kts 249°
2026-05-04 05:21 23.22432 42.64082 30076 ft 441 kts 249°
2026-05-04 05:22 23.20152 42.57880 30083 ft 442 kts 249°
2026-05-04 05:22 23.17870 42.51676 30077 ft 442 kts 249°
2026-05-04 05:23 23.15586 42.45479 30059 ft 441 kts 249°
2026-05-04 05:23 23.13303 42.39289 30087 ft 441 kts 249°
2026-05-04 05:24 23.11036 42.33101 30077 ft 440 kts 249°
2026-05-04 05:24 23.08829 42.26899 30077 ft 440 kts 249°
2026-05-04 05:25 23.06625 42.20700 30077 ft 440 kts 249°
2026-05-04 05:25 23.04414 42.14509 30079 ft 439 kts 249°
2026-05-04 05:26 23.02199 42.08328 30067 ft 439 kts 249°
2026-05-04 05:26 22.99998 42.02195 30070 ft 439 kts 249°
2026-05-04 05:28 22.91103 41.77497 30094 ft 440 kts 249°
2026-05-04 05:29 22.88872 41.71323 30082 ft 440 kts 249°
2026-05-04 05:29 22.86632 41.65134 30093 ft 441 kts 249°
2026-05-04 05:31 22.77636 41.40357 30091 ft 440 kts 249°
2026-05-04 05:32 22.75388 41.34186 30104 ft 440 kts 249°
2026-05-04 05:33 22.72011 41.24942 30110 ft 440 kts 249°
2026-05-04 05:33 22.69756 41.18781 30109 ft 440 kts 249°
2026-05-04 05:34 22.67502 41.12628 30119 ft 440 kts 249°
2026-05-04 05:34 22.65246 41.06478 30117 ft 439 kts 249°
2026-05-04 05:35 22.62991 41.00340 30099 ft 439 kts 249°
2026-05-04 05:35 22.60754 40.94254 30119 ft 439 kts 249°
2026-05-04 05:36 22.58480 40.88076 30120 ft 439 kts 249°
2026-05-04 05:36 22.56233 40.81983 30121 ft 439 kts 249°
2026-05-04 05:37 22.53965 40.75855 30119 ft 439 kts 249°
2026-05-04 05:37 22.51697 40.69733 30111 ft 439 kts 249°
2026-05-04 05:38 22.48289 40.60541 30113 ft 440 kts 249°
2026-05-04 05:38 22.46006 40.54395 30123 ft 441 kts 249°
2026-05-04 05:39 22.42567 40.45150 30126 ft 442 kts 249°
2026-05-04 05:40 22.39507 40.36941 30122 ft 442 kts 249°
2026-05-04 05:40 22.37210 40.30789 30113 ft 441 kts 249°
2026-05-04 05:41 22.34915 40.24650 30115 ft 440 kts 249°
2026-05-04 05:41 22.32621 40.18520 30101 ft 440 kts 249°
2026-05-04 05:42 22.30328 40.12398 30102 ft 440 kts 249°
2026-05-04 05:42 22.28031 40.06276 30072 ft 440 kts 249°
2026-05-04 05:43 22.25389 40.00327 30060 ft 441 kts 240°
2026-05-04 05:45 22.11822 39.78217 30016 ft 442 kts 238°
2026-05-04 05:47 21.98290 39.56178 29963 ft 440 kts 238°
2026-05-04 05:47 21.94906 39.50679 29952 ft 440 kts 238°
2026-05-04 05:48 21.91526 39.45191 29935 ft 439 kts 238°
2026-05-04 05:48 21.88145 39.39707 29906 ft 439 kts 238°
2026-05-04 05:49 21.84763 39.34227 29911 ft 440 kts 238°
2026-05-04 05:49 21.81377 39.28745 29905 ft 440 kts 238°
2026-05-04 05:51 21.70057 39.09166 29908 ft 439 kts 249°
2026-05-04 05:51 21.68988 39.06091 29924 ft 439 kts 250°
2026-05-04 05:52 21.66868 38.99930 29906 ft 440 kts 250°
2026-05-04 05:52 21.64724 38.93778 29903 ft 440 kts 250°
2026-05-04 05:54 21.56105 38.69221 29873 ft 439 kts 250°
2026-05-04 05:55 21.53943 38.63082 29900 ft 439 kts 250°
2026-05-04 05:55 21.51777 38.56938 29890 ft 440 kts 250°
2026-05-04 05:56 21.49607 38.50793 29898 ft 440 kts 250°
2026-05-04 05:56 21.47433 38.44644 29898 ft 440 kts 250°
2026-05-04 05:57 21.45257 38.38498 29900 ft 440 kts 250°
2026-05-04 05:57 21.43070 38.32327 30231 ft 443 kts 250°
2026-05-04 05:58 21.41977 38.29245 30589 ft 441 kts 250°
2026-05-04 05:58 21.40884 38.26167 30900 ft 440 kts 250°
2026-05-04 05:58 21.39796 38.23104 31240 ft 439 kts 250°
2026-05-04 05:58 21.38712 38.20051 31571 ft 437 kts 250°
2026-05-04 05:59 21.37629 38.17007 31840 ft 437 kts 250°
2026-05-04 05:59 21.36547 38.13945 31854 ft 439 kts 250°
2026-05-04 05:59 21.34445 38.07814 31899 ft 437 kts 250°
2026-05-04 06:00 21.32367 38.01701 31906 ft 435 kts 250°
2026-05-04 06:00 21.30288 37.95609 31916 ft 434 kts 250°
2026-05-04 06:01 21.28206 37.89535 31917 ft 434 kts 250°
2026-05-04 06:03 21.19836 37.65215 31915 ft 437 kts 250°
2026-05-04 06:05 21.10320 37.37719 31931 ft 437 kts 250°
2026-05-04 06:06 21.08202 37.31622 31920 ft 437 kts 250°
2026-05-04 06:06 21.06082 37.25525 31915 ft 437 kts 250°
2026-05-04 06:07 21.03959 37.19430 31939 ft 437 kts 250°
2026-05-04 06:07 21.01835 37.13340 31948 ft 437 kts 250°
2026-05-04 06:08 20.99708 37.07248 31947 ft 437 kts 250°
2026-05-04 06:08 20.97579 37.01157 31940 ft 437 kts 250°
2026-05-04 06:09 20.95448 36.95071 31951 ft 437 kts 250°
2026-05-04 06:11 20.86869 36.70640 31972 ft 440 kts 250°
2026-05-04 06:13 20.78217 36.46134 31969 ft 440 kts 250°
2026-05-04 06:14 20.70643 36.24773 31970 ft 440 kts 250°
2026-05-04 06:15 20.68472 36.18661 31964 ft 440 kts 250°
2026-05-04 06:15 20.66299 36.12549 31970 ft 440 kts 250°
2026-05-04 06:16 20.64124 36.06441 31946 ft 440 kts 249°
2026-05-04 06:16 20.61950 36.00339 31954 ft 440 kts 249°
2026-05-04 06:17 20.59772 35.94238 31961 ft 440 kts 249°
2026-05-04 06:17 20.57589 35.88129 31959 ft 441 kts 249°
2026-05-04 06:18 20.55400 35.82010 31962 ft 441 kts 249°
2026-05-04 06:20 20.46636 35.57593 31965 ft 441 kts 249°
2026-05-04 06:21 20.41138 35.42340 31961 ft 440 kts 249°
2026-05-04 06:22 20.38938 35.36249 31964 ft 440 kts 249°
2026-05-04 06:25 20.23499 34.93717 31950 ft 442 kts 249°
2026-05-04 06:26 20.21276 34.87622 31951 ft 442 kts 249°
2026-05-04 06:26 20.19049 34.81525 31928 ft 442 kts 249°
2026-05-04 06:27 20.13486 34.66325 31939 ft 440 kts 249°
2026-05-04 06:28 20.11633 34.61275 31943 ft 441 kts 249°
2026-05-04 06:28 20.09401 34.55196 31943 ft 442 kts 249°
2026-05-04 06:29 20.07160 34.49099 31943 ft 442 kts 249°
2026-05-04 06:29 20.04916 34.43004 31946 ft 443 kts 249°
2026-05-04 06:30 20.02671 34.36911 31939 ft 442 kts 249°
2026-05-04 06:30 20.00429 34.30834 31939 ft 441 kts 249°
2026-05-04 06:31 19.98186 34.24762 31917 ft 441 kts 249°
2026-05-04 06:31 19.95944 34.18701 31944 ft 441 kts 249°
2026-05-04 06:33 19.86942 33.94433 31949 ft 442 kts 249°
2026-05-04 06:34 19.84680 33.88356 31941 ft 442 kts 249°
2026-05-04 06:34 19.82418 33.82283 31938 ft 442 kts 249°
2026-05-04 06:36 19.73349 33.58003 31938 ft 443 kts 249°
2026-05-04 06:37 19.71070 33.51924 31938 ft 443 kts 249°
2026-05-04 06:37 19.68784 33.45844 31940 ft 443 kts 249°
2026-05-04 06:38 19.66498 33.39769 31940 ft 443 kts 249°
2026-05-04 06:40 19.57343 33.15493 31945 ft 445 kts 249°
2026-05-04 06:40 19.55055 33.09443 31941 ft 446 kts 249°
2026-05-04 06:41 19.52743 33.03335 31941 ft 446 kts 249°
2026-05-04 06:41 19.50413 32.97192 31939 ft 446 kts 249°
2026-05-04 06:42 19.48115 32.91137 31940 ft 446 kts 249°
2026-05-04 06:44 19.38864 32.66833 31942 ft 445 kts 249°
2026-05-04 06:44 19.36544 32.60755 31948 ft 445 kts 249°
2026-05-04 06:45 19.34221 32.54676 31943 ft 446 kts 249°
2026-05-04 06:45 19.31892 32.48592 31939 ft 446 kts 249°
2026-05-04 06:46 19.29561 32.42505 31939 ft 446 kts 249°
2026-05-04 06:46 19.27227 32.36420 31945 ft 446 kts 249°
2026-05-04 06:48 19.17873 32.12100 31945 ft 447 kts 249°
2026-05-04 06:50 19.08477 31.87778 31941 ft 447 kts 249°
2026-05-04 06:51 19.06122 31.81696 31933 ft 447 kts 249°
2026-05-04 06:51 19.03768 31.75623 31955 ft 447 kts 249°
2026-05-04 06:52 19.01413 31.69540 31942 ft 447 kts 249°
2026-05-04 06:52 18.99057 31.63455 31944 ft 448 kts 249°
2026-05-04 06:53 18.96697 31.57369 31944 ft 448 kts 249°
2026-05-04 06:53 18.94333 31.51276 31950 ft 448 kts 249°
2026-05-04 06:54 18.91981 31.45227 31942 ft 448 kts 249°
2026-05-04 06:54 18.89606 31.39149 31948 ft 448 kts 249°
2026-05-04 06:55 18.87229 31.33076 31947 ft 447 kts 249°
2026-05-04 06:55 18.84852 31.27005 31941 ft 447 kts 248°
2026-05-04 06:57 18.75301 31.02693 31949 ft 449 kts 248°
2026-05-04 06:58 18.72904 30.96607 31951 ft 449 kts 248°
2026-05-04 06:58 18.70508 30.90531 31952 ft 449 kts 248°
2026-05-04 06:59 18.68109 30.84453 31947 ft 448 kts 248°
2026-05-04 06:59 18.65726 30.78422 31943 ft 448 kts 248°
2026-05-04 07:01 18.56134 30.54211 31955 ft 447 kts 248°
2026-05-04 07:02 18.53733 30.48167 31948 ft 447 kts 248°
2026-05-04 07:02 18.51330 30.42123 31953 ft 447 kts 248°
2026-05-04 07:03 18.48921 30.36074 31957 ft 448 kts 248°
2026-05-04 07:03 18.46512 30.30030 31950 ft 448 kts 248°
2026-05-04 07:04 18.44099 30.23980 31953 ft 448 kts 248°
2026-05-04 07:04 18.41681 30.17926 31959 ft 449 kts 248°
2026-05-04 07:05 18.39272 30.11902 31959 ft 449 kts 248°
2026-05-04 07:05 18.36844 30.05835 31961 ft 450 kts 248°
2026-05-04 07:06 18.33195 29.96731 31961 ft 450 kts 248°
2026-05-04 07:07 18.30759 29.90661 31959 ft 450 kts 248°
2026-05-04 07:09 18.21014 29.66444 31974 ft 450 kts 248°
2026-05-04 07:09 18.18569 29.60384 31971 ft 450 kts 248°
2026-05-04 07:10 18.16118 29.54317 31974 ft 451 kts 248°
2026-05-04 07:12 18.06299 29.30071 31974 ft 451 kts 248°
2026-05-04 07:12 18.03839 29.24011 31979 ft 451 kts 248°
2026-05-04 07:13 18.01374 29.17946 31977 ft 451 kts 248°
2026-05-04 07:13 17.98906 29.11881 31985 ft 451 kts 248°
2026-05-04 07:14 17.92720 28.96703 31981 ft 452 kts 248°
2026-05-04 07:15 17.90238 28.90626 31983 ft 453 kts 248°
2026-05-04 07:15 17.87756 28.84554 31984 ft 452 kts 248°
2026-05-04 07:16 17.85273 28.78485 31983 ft 452 kts 248°
2026-05-04 07:16 17.82790 28.72420 31982 ft 452 kts 248°
2026-05-04 07:17 17.80305 28.66359 31988 ft 452 kts 248°
2026-05-04 07:17 17.77833 28.60334 31986 ft 453 kts 248°
2026-05-04 07:18 17.75741 28.55238 31984 ft 454 kts 248°
2026-05-04 07:18 17.73243 28.49157 31985 ft 454 kts 248°
2026-05-04 07:19 17.70741 28.43070 31983 ft 454 kts 248°
2026-05-04 07:19 17.68251 28.37020 31986 ft 455 kts 248°
2026-05-04 07:20 17.65728 28.30898 31987 ft 454 kts 248°
2026-05-04 07:20 17.63238 28.24860 31984 ft 454 kts 248°
2026-05-04 07:22 17.53201 28.00582 31993 ft 455 kts 248°
2026-05-04 07:23 17.50680 27.94499 31990 ft 455 kts 248°
2026-05-04 07:23 17.48153 27.88409 31990 ft 456 kts 248°
2026-05-04 07:24 17.45625 27.82321 31991 ft 456 kts 248°
2026-05-04 07:24 17.43111 27.76274 31991 ft 456 kts 248°
2026-05-04 07:26 17.32971 27.51942 31997 ft 457 kts 248°
2026-05-04 07:27 17.30423 27.45844 31997 ft 458 kts 248°
2026-05-04 07:27 17.27868 27.39736 31996 ft 458 kts 247°
2026-05-04 07:28 17.25310 27.33623 31994 ft 459 kts 247°
2026-05-04 07:28 17.22750 27.27513 31999 ft 458 kts 247°
2026-05-04 07:29 17.20191 27.21411 32000 ft 458 kts 247°
2026-05-04 07:29 17.17628 27.15317 32006 ft 457 kts 247°
2026-05-04 07:30 17.15061 27.09234 31985 ft 457 kts 247°
2026-05-04 07:30 17.12511 27.03194 31998 ft 457 kts 247°
2026-05-04 07:31 17.09941 26.97109 31999 ft 458 kts 247°
2026-05-04 07:33 16.99592 26.72661 31997 ft 460 kts 247°
2026-05-04 07:33 16.96996 26.66544 31995 ft 460 kts 247°
2026-05-04 07:34 16.94403 26.60439 31997 ft 459 kts 247°
2026-05-04 07:34 16.91812 26.54346 31997 ft 459 kts 247°
2026-05-04 07:35 16.89220 26.48255 31998 ft 459 kts 247°
2026-05-04 07:35 16.86620 26.42152 32004 ft 460 kts 247°
2026-05-04 07:36 16.84014 26.36039 32003 ft 462 kts 247°
2026-05-04 07:38 16.73546 26.11552 31996 ft 462 kts 247°
2026-05-04 07:38 16.70925 26.05436 31995 ft 461 kts 247°
2026-05-04 07:39 16.68307 25.99330 31996 ft 461 kts 247°
2026-05-04 07:39 16.65689 25.93231 31990 ft 461 kts 247°
2026-05-04 07:40 16.63066 25.87129 32004 ft 462 kts 247°
2026-05-04 07:40 16.60433 25.81006 32003 ft 463 kts 247°
2026-05-04 07:41 16.57791 25.74869 32004 ft 465 kts 247°
2026-05-04 07:41 16.55140 25.68718 32003 ft 465 kts 247°
2026-05-04 07:42 16.52485 25.62564 32001 ft 466 kts 247°
2026-05-04 07:42 16.49827 25.56408 31995 ft 465 kts 247°
2026-05-04 07:43 16.47175 25.50273 31993 ft 464 kts 247°
2026-05-04 07:43 16.44527 25.44150 31993 ft 463 kts 247°
2026-05-04 07:44 16.41897 25.38076 31996 ft 462 kts 247°
2026-05-04 07:44 16.39253 25.31977 31998 ft 462 kts 247°
2026-05-04 07:45 16.36608 25.25879 31991 ft 462 kts 247°
2026-05-04 07:45 16.33960 25.19781 31993 ft 462 kts 246°
2026-05-04 07:46 16.31310 25.13682 31993 ft 462 kts 246°
2026-05-04 07:46 16.28656 25.07582 31997 ft 463 kts 246°
2026-05-04 07:47 16.25998 25.01478 31997 ft 463 kts 246°
2026-05-04 07:49 16.15340 24.77058 31992 ft 464 kts 246°
2026-05-04 07:49 16.12666 24.70944 31990 ft 465 kts 246°
2026-05-04 07:50 16.09986 24.64823 31990 ft 465 kts 246°
2026-05-04 07:50 16.07299 24.58692 31987 ft 466 kts 246°
2026-05-04 07:51 16.04607 24.52557 31990 ft 466 kts 246°
2026-05-04 07:51 16.01914 24.46423 31993 ft 466 kts 246°
2026-05-04 07:52 15.99240 24.40337 31989 ft 466 kts 246°
2026-05-04 07:52 15.96546 24.34213 31989 ft 466 kts 246°
2026-05-04 07:54 15.85758 24.09739 31990 ft 467 kts 246°
2026-05-04 07:55 15.83049 24.03605 31987 ft 467 kts 246°
2026-05-04 07:55 15.80338 23.97471 31996 ft 468 kts 246°
2026-05-04 07:56 15.77632 23.91331 31986 ft 468 kts 246°
2026-05-04 07:56 15.74928 23.85193 31988 ft 467 kts 246°
2026-05-04 07:57 15.72224 23.79059 31987 ft 467 kts 246°
2026-05-04 07:57 15.69519 23.72932 31991 ft 467 kts 246°
2026-05-04 07:58 15.66812 23.66807 31974 ft 467 kts 246°
2026-05-04 07:58 15.64105 23.60686 31978 ft 466 kts 246°
2026-05-04 07:59 15.61397 23.54568 31981 ft 467 kts 246°
2026-05-04 07:59 15.58685 23.48449 31989 ft 467 kts 246°
2026-05-04 08:00 15.55971 23.42329 31982 ft 467 kts 246°
2026-05-04 08:02 15.45111 23.17893 31979 ft 467 kts 246°
2026-05-04 08:02 15.42390 23.11784 31970 ft 467 kts 246°
2026-05-04 08:03 15.39667 23.05673 31981 ft 467 kts 246°
2026-05-04 08:03 15.36942 22.99564 31981 ft 467 kts 246°
2026-05-04 08:04 15.34208 22.93454 31981 ft 467 kts 246°
2026-05-04 08:04 15.31928 22.88377 31978 ft 468 kts 246°
2026-05-04 08:05 15.29183 22.82266 31986 ft 468 kts 246°
2026-05-04 08:05 15.26437 22.76157 31989 ft 468 kts 246°
2026-05-04 08:06 15.23690 22.70047 31993 ft 468 kts 246°
2026-05-04 08:06 15.20944 22.63945 31994 ft 467 kts 246°
2026-05-04 08:08 15.10010 22.39556 31993 ft 466 kts 249°
2026-05-04 08:11 14.99295 22.11476 31988 ft 466 kts 250°
2026-05-04 08:11 14.95705 22.02132 31978 ft 466 kts 250°
2026-05-04 08:12 14.93312 21.95905 31978 ft 466 kts 250°
2026-05-04 08:12 14.90935 21.89728 31965 ft 465 kts 250°
2026-05-04 08:13 14.88541 21.83511 31959 ft 465 kts 250°
2026-05-04 08:13 14.86144 21.77293 31950 ft 465 kts 250°
2026-05-04 08:14 14.83747 21.71080 31952 ft 466 kts 250°
2026-05-04 08:16 14.74122 21.46187 31940 ft 466 kts 250°
2026-05-04 08:16 14.71713 21.39972 31930 ft 466 kts 249°
2026-05-04 08:17 14.69304 21.33763 31930 ft 466 kts 249°
2026-05-04 08:17 14.66891 21.27547 31936 ft 466 kts 249°
2026-05-04 08:19 14.57232 21.02725 31915 ft 466 kts 249°
2026-05-04 08:20 14.54824 20.96552 31916 ft 467 kts 249°
2026-05-04 08:20 14.52398 20.90334 31912 ft 467 kts 249°
2026-05-04 08:21 14.49970 20.84117 31910 ft 467 kts 249°
2026-05-04 08:21 14.47538 20.77898 31906 ft 468 kts 249°
2026-05-04 08:22 14.45107 20.71676 31910 ft 468 kts 249°
2026-05-04 08:24 14.35345 20.46732 31906 ft 469 kts 249°
2026-05-04 08:24 14.32890 20.40489 31914 ft 470 kts 249°
2026-05-04 08:25 14.30432 20.34243 31911 ft 470 kts 249°
2026-05-04 08:25 14.27970 20.27989 31908 ft 471 kts 249°
2026-05-04 08:27 14.18127 20.03036 31899 ft 470 kts 249°
2026-05-04 08:28 14.15661 19.96800 31909 ft 470 kts 249°
2026-05-04 08:28 14.13195 19.90567 31902 ft 470 kts 249°
2026-05-04 08:29 14.10727 19.84335 31903 ft 470 kts 249°
2026-05-04 08:31 14.00839 19.59418 31911 ft 471 kts 249°
2026-05-04 08:33 13.90913 19.34491 31915 ft 471 kts 249°
2026-05-04 08:35 13.80957 19.09587 31902 ft 470 kts 249°
2026-05-04 08:35 13.78471 19.03378 31904 ft 469 kts 249°
2026-05-04 08:37 13.69788 18.81737 31897 ft 468 kts 249°
2026-05-04 08:38 13.67301 18.75551 31907 ft 468 kts 249°
2026-05-04 08:38 13.64811 18.69360 31904 ft 468 kts 249°
2026-05-04 08:40 13.54841 18.44628 31904 ft 468 kts 249°
2026-05-04 08:41 13.52342 18.38442 31897 ft 468 kts 249°
2026-05-04 08:41 13.49843 18.32259 31900 ft 469 kts 249°
2026-05-04 08:42 13.47339 18.26070 31898 ft 469 kts 249°
2026-05-04 08:42 13.44831 18.19876 31900 ft 470 kts 249°
2026-05-04 08:43 13.42313 18.13676 31886 ft 471 kts 248°
2026-05-04 08:43 13.39755 18.07530 31881 ft 471 kts 248°
2026-05-04 08:44 13.37166 18.01348 31892 ft 471 kts 248°
2026-05-04 08:46 13.26852 17.76653 31875 ft 470 kts 248°
2026-05-04 08:46 13.24274 17.70492 31897 ft 469 kts 248°
2026-05-04 08:47 13.21696 17.64333 31876 ft 470 kts 248°
2026-05-04 08:47 13.19116 17.58172 31898 ft 470 kts 248°
2026-05-04 08:48 13.16530 17.52003 31892 ft 471 kts 248°
2026-05-04 08:48 13.13938 17.45824 31893 ft 472 kts 248°
2026-05-04 08:49 13.11344 17.39645 31896 ft 472 kts 248°
2026-05-04 08:50 13.02498 17.17902 31879 ft 472 kts 248°
2026-05-04 08:51 12.99991 17.11740 31895 ft 471 kts 248°
2026-05-04 08:51 12.97462 17.05535 31893 ft 471 kts 248°
2026-05-04 08:52 12.95345 17.00346 31894 ft 471 kts 248°
2026-05-04 08:52 12.92837 16.94200 31892 ft 471 kts 248°
2026-05-04 08:54 12.82688 16.69376 31887 ft 473 kts 248°
2026-05-04 08:55 12.80139 16.63154 31889 ft 474 kts 248°
2026-05-04 08:55 12.77588 16.56932 31888 ft 474 kts 248°
2026-05-04 09:01 12.50723 15.91690 31893 ft 476 kts 248°
2026-05-04 09:01 12.48143 15.85452 31889 ft 476 kts 248°
2026-05-04 09:02 12.45558 15.79205 31889 ft 477 kts 248°
2026-05-04 09:02 12.42968 15.72951 31895 ft 477 kts 248°
2026-05-04 09:03 12.40380 15.66708 31896 ft 477 kts 248°
2026-05-04 09:03 12.37808 15.60508 31899 ft 476 kts 248°
2026-05-04 09:04 12.35221 15.54276 31890 ft 476 kts 248°
2026-05-04 09:04 12.32638 15.48059 31893 ft 475 kts 248°
2026-05-04 09:05 12.30057 15.41851 31895 ft 474 kts 248°
2026-05-04 09:05 12.27477 15.35649 31896 ft 474 kts 248°
2026-05-04 09:06 12.24896 15.29450 31902 ft 474 kts 248°
2026-05-04 09:08 12.14713 15.04557 31908 ft 474 kts 254°
2026-05-04 09:08 12.13337 14.97983 31906 ft 473 kts 263°
2026-05-04 09:09 12.12504 14.91305 31909 ft 474 kts 263°
2026-05-04 09:09 12.11649 14.84633 31910 ft 474 kts 263°
2026-05-04 09:10 12.10762 14.77954 31904 ft 474 kts 263°
2026-05-04 09:10 12.09874 14.71324 31910 ft 473 kts 263°
2026-05-04 09:11 12.08982 14.64660 31902 ft 473 kts 263°
2026-05-04 09:11 12.08075 14.58010 31911 ft 473 kts 262°
2026-05-04 09:11 12.07610 14.54669 32022 ft 476 kts 262°
2026-05-04 09:12 12.07144 14.51340 32523 ft 471 kts 262°
2026-05-04 09:12 12.06682 14.48040 32988 ft 468 kts 262°
2026-05-04 09:14 12.03471 14.25040 33907 ft 464 kts 262°
2026-05-04 09:14 12.02558 14.18521 33915 ft 462 kts 262°
2026-05-04 09:15 12.01646 14.12022 33918 ft 462 kts 262°
2026-05-04 09:15 12.00733 14.05527 33923 ft 462 kts 262°
2026-05-04 09:17 11.96579 13.76111 33921 ft 469 kts 262°
2026-05-04 09:18 11.95645 13.69523 33929 ft 469 kts 262°
2026-05-04 09:18 11.94708 13.62934 33919 ft 469 kts 262°
2026-05-04 09:19 11.93770 13.56344 33925 ft 469 kts 262°
2026-05-04 09:19 11.92831 13.49760 33921 ft 468 kts 262°
2026-05-04 09:20 11.91892 13.43187 33922 ft 468 kts 262°
2026-05-04 09:20 11.90952 13.36614 33925 ft 467 kts 262°
2026-05-04 09:21 11.90012 13.30053 33920 ft 467 kts 262°
2026-05-04 09:21 11.89070 13.23491 33924 ft 467 kts 262°
2026-05-04 09:22 11.88127 13.16932 33925 ft 467 kts 262°
2026-05-04 09:22 11.86810 13.10446 33927 ft 468 kts 253°
2026-05-04 09:23 11.84397 13.04333 33923 ft 469 kts 244°
2026-05-04 09:23 11.81356 12.98440 33931 ft 469 kts 243°
2026-05-04 09:25 11.69190 12.74868 33937 ft 469 kts 243°
2026-05-04 09:26 11.66162 12.68968 33937 ft 470 kts 243°
2026-05-04 09:26 11.63128 12.63062 33938 ft 470 kts 243°
2026-05-04 09:27 11.60094 12.57161 33941 ft 470 kts 243°
2026-05-04 09:27 11.57059 12.51261 33942 ft 470 kts 243°
2026-05-04 09:28 11.54021 12.45360 33945 ft 470 kts 243°
2026-05-04 09:28 11.50983 12.39463 33947 ft 469 kts 243°
2026-05-04 09:29 11.47971 12.33618 33945 ft 468 kts 243°
2026-05-04 09:29 11.44944 12.27749 33948 ft 467 kts 243°
2026-05-04 09:30 11.41920 12.21889 33944 ft 466 kts 243°
2026-05-04 09:30 11.38905 12.16048 33940 ft 465 kts 243°
2026-05-04 09:31 11.35892 12.10216 33952 ft 465 kts 243°
2026-05-04 09:31 11.32878 12.04387 33959 ft 465 kts 243°
2026-05-04 09:32 11.29861 11.98553 33947 ft 466 kts 243°
2026-05-04 09:34 11.17693 11.75062 33942 ft 472 kts 243°
2026-05-04 09:34 11.14629 11.69157 33947 ft 471 kts 243°
2026-05-04 09:35 11.11565 11.63255 33935 ft 471 kts 243°
2026-05-04 09:35 11.08504 11.57360 33943 ft 471 kts 243°
2026-05-04 09:37 10.96214 11.33730 33942 ft 474 kts 243°
2026-05-04 09:38 10.93127 11.27804 33941 ft 474 kts 244°
2026-05-04 09:38 10.90032 11.21864 33946 ft 475 kts 244°
2026-05-04 09:39 10.86932 11.15919 33948 ft 476 kts 244°
2026-05-04 09:39 10.83849 11.10011 33944 ft 476 kts 244°
2026-05-04 09:40 10.80739 11.04054 33950 ft 477 kts 244°
2026-05-04 09:40 10.77629 10.98100 33949 ft 476 kts 244°
2026-05-04 09:42 10.65693 10.75366 33952 ft 475 kts 243°
2026-05-04 09:43 10.62573 10.69450 33954 ft 475 kts 243°
2026-05-04 09:43 10.59450 10.63529 33954 ft 475 kts 243°
2026-05-04 09:44 10.56327 10.57615 33951 ft 475 kts 243°
2026-05-04 09:46 10.43796 10.33917 33953 ft 477 kts 243°
2026-05-04 09:46 10.40654 10.27982 33953 ft 477 kts 243°
2026-05-04 09:47 10.37509 10.22045 33956 ft 477 kts 243°
2026-05-04 09:49 10.24874 9.98224 33964 ft 480 kts 243°
2026-05-04 09:51 10.13794 9.77375 33965 ft 480 kts 243°
2026-05-04 09:51 10.10624 9.71418 33972 ft 479 kts 243°
2026-05-04 09:52 10.07460 9.65475 33978 ft 479 kts 243°
2026-05-04 09:52 10.04295 9.59532 33973 ft 478 kts 243°
2026-05-04 09:53 10.01130 9.53593 33980 ft 479 kts 243°
2026-05-04 09:53 9.97961 9.47651 33987 ft 479 kts 243°
2026-05-04 09:54 9.94786 9.41700 33988 ft 480 kts 243°
2026-05-04 09:54 9.91609 9.35746 33998 ft 480 kts 243°
2026-05-04 09:55 9.88427 9.29788 33994 ft 481 kts 243°
2026-05-04 09:55 9.85246 9.23825 34022 ft 481 kts 243°
2026-05-04 09:56 9.82094 9.17899 34022 ft 481 kts 243°
2026-05-04 09:56 9.78922 9.11934 34021 ft 480 kts 243°
2026-05-04 09:57 9.75750 9.05975 34036 ft 479 kts 243°
2026-05-04 09:57 9.72584 9.00030 34023 ft 478 kts 243°
2026-05-04 09:58 9.69430 8.94110 34032 ft 477 kts 243°
2026-05-04 09:58 9.66285 8.88202 34040 ft 476 kts 244°
2026-05-04 10:00 9.60684 8.65646 34043 ft 474 kts 261°
2026-05-04 10:00 9.60076 8.62364 34035 ft 475 kts 260°
2026-05-04 10:04 9.51398 8.16449 34018 ft 472 kts 260°
2026-05-04 10:04 9.50147 8.09921 34019 ft 472 kts 260°
2026-05-04 10:05 9.48897 8.03401 34016 ft 471 kts 260°
2026-05-04 10:05 9.47648 7.96892 34015 ft 471 kts 260°
2026-05-04 10:06 9.46398 7.90378 34022 ft 471 kts 260°
2026-05-04 10:06 9.45148 7.83870 34013 ft 471 kts 260°
2026-05-04 10:08 9.40770 7.61133 34006 ft 470 kts 260°
2026-05-04 10:08 9.39518 7.54644 34002 ft 469 kts 259°
2026-05-04 10:09 9.38272 7.48198 34003 ft 469 kts 259°
2026-05-04 10:09 9.37019 7.41710 34003 ft 470 kts 260°
2026-05-04 10:10 9.35644 7.35251 33993 ft 470 kts 252°
2026-05-04 10:10 9.34301 7.32238 34008 ft 471 kts 240°
2026-05-04 10:10 9.32450 7.29498 34007 ft 473 kts 232°
2026-05-04 10:11 9.27649 7.24916 34005 ft 476 kts 222°
2026-05-04 10:11 9.22616 7.20537 34004 ft 478 kts 222°
2026-05-04 10:12 9.17594 7.16109 34004 ft 479 kts 223°
2026-05-04 10:12 9.12588 7.11639 33986 ft 480 kts 223°
2026-05-04 10:13 9.07591 7.07160 33988 ft 480 kts 223°
2026-05-04 10:13 9.02593 7.02682 33987 ft 479 kts 223°
2026-05-04 10:14 8.97633 6.98243 33980 ft 479 kts 223°
2026-05-04 10:16 8.77798 6.80519 33947 ft 453 kts 223°
2026-05-04 10:16 8.75481 6.78451 33947 ft 436 kts 223°
2026-05-04 10:16 8.73247 6.76458 33949 ft 420 kts 223°
2026-05-04 10:17 8.71105 6.74546 33943 ft 402 kts 223°
2026-05-04 10:17 8.69052 6.72713 33916 ft 385 kts 223°
2026-05-04 10:19 8.55275 6.60410 30183 ft 368 kts 223°
2026-05-04 10:19 8.53372 6.58714 29747 ft 363 kts 223°
2026-05-04 10:19 8.51482 6.57028 29131 ft 361 kts 223°
2026-05-04 10:19 8.49609 6.55358 28662 ft 356 kts 223°
2026-05-04 10:20 8.47762 6.53712 28157 ft 353 kts 223°
2026-05-04 10:20 8.45928 6.52076 27649 ft 350 kts 223°
2026-05-04 10:20 8.44140 6.50482 27213 ft 345 kts 222°
2026-05-04 10:20 8.42325 6.48865 26735 ft 342 kts 222°
2026-05-04 10:21 8.40582 6.47284 26233 ft 340 kts 226°
2026-05-04 10:21 8.39031 6.45497 25719 ft 337 kts 234°
2026-05-04 10:21 8.37726 6.43558 25361 ft 330 kts 241°
2026-05-04 10:21 8.36617 6.41541 24901 ft 328 kts 242°
2026-05-04 10:22 8.34495 6.37508 24035 ft 322 kts 242°
2026-05-04 10:22 8.33451 6.35514 23603 ft 320 kts 242°
2026-05-04 10:22 8.32410 6.33535 23087 ft 318 kts 242°
2026-05-04 10:23 8.31373 6.31570 22538 ft 317 kts 242°
2026-05-04 10:23 8.30332 6.29601 21955 ft 318 kts 242°
2026-05-04 10:25 8.23281 6.16325 18890 ft 296 kts 242°
2026-05-04 10:25 8.22297 6.14475 18277 ft 301 kts 242°
2026-05-04 10:25 8.21310 6.12619 17774 ft 298 kts 242°
2026-05-04 10:25 8.20341 6.10797 17384 ft 292 kts 242°
2026-05-04 10:26 8.19383 6.08996 16848 ft 292 kts 242°
2026-05-04 10:26 8.18433 6.07210 16302 ft 293 kts 241°
2026-05-04 10:26 8.17471 6.05402 15845 ft 290 kts 241°
2026-05-04 10:26 8.16522 6.03619 15428 ft 287 kts 241°
2026-05-04 10:27 8.15577 6.01844 14924 ft 288 kts 241°
2026-05-04 10:27 8.14630 6.00066 14467 ft 287 kts 241°
2026-05-04 10:27 8.13690 5.98300 14055 ft 284 kts 241°
2026-05-04 10:27 8.12754 5.96544 13536 ft 284 kts 241°
2026-05-04 10:28 8.11816 5.94782 13006 ft 284 kts 240°
2026-05-04 10:28 8.10892 5.93046 12643 ft 277 kts 240°
2026-05-04 10:28 8.09985 5.91344 12188 ft 274 kts 240°
2026-05-04 10:28 8.09078 5.89642 11677 ft 276 kts 240°
2026-05-04 10:29 8.08174 5.87944 11278 ft 272 kts 240°
2026-05-04 10:29 8.07286 5.86279 10912 ft 268 kts 240°
2026-05-04 10:29 8.06402 5.84619 10422 ft 269 kts 240°
2026-05-04 10:29 8.05514 5.82952 9981 ft 268 kts 239°
2026-05-04 10:30 8.04640 5.81312 9616 ft 264 kts 240°
2026-05-04 10:30 8.03773 5.79688 9192 ft 261 kts 240°
2026-05-04 10:30 8.02923 5.78094 8800 ft 256 kts 240°
2026-05-04 10:30 8.02084 5.76521 8381 ft 253 kts 240°
2026-05-04 10:31 8.01253 5.74967 8004 ft 249 kts 240°
2026-05-04 10:31 8.00444 5.73447 7675 ft 243 kts 240°
2026-05-04 10:32 7.95464 5.64661 4899 ft 257 kts 241°
2026-05-04 10:33 7.94825 5.63031 4763 ft 243 kts 260°
2026-05-04 10:33 7.94823 5.61372 4443 ft 237 kts 285°
2026-05-04 10:33 7.95597 5.59878 3709 ft 253 kts 313°
2026-05-04 10:33 7.96509 5.59104 3257 ft 264 kts 329°
2026-05-04 10:34 7.98240 5.58504 2860 ft 264 kts 357°
2026-05-04 10:34 7.99997 5.58858 2492 ft 262 kts 32°
2026-05-04 10:34 8.01212 5.60188 1936 ft 264 kts 72°
2026-05-04 10:34 8.01324 5.61991 1337 ft 172 kts 109°
2026-05-04 10:35 8.01248 5.62336 1314 ft 0 kts 115°
2026-05-04 10:35 8.01248 5.62335 1314 ft 0 kts 115°
2026-05-04 10:37 8.01248 5.62334 1314 ft 0 kts 116°
2026-05-04 10:39 8.01247 5.62334 1314 ft 0 kts 117°
2026-05-04 10:39 8.01247 5.62333 1314 ft 0 kts 117°
2026-05-04 10:42 8.01247 5.62332 1314 ft 0 kts 118°
2026-05-04 10:44 8.01246 5.62331 1314 ft 0 kts 119°
2026-05-04 10:46 8.01246 5.62330 1314 ft 0 kts 120°
2026-05-04 10:47 8.01246 5.62329 1315 ft 0 kts 120°